Location: Carnoy
(49.9849°N, 2.7558°E)
Time: 22:34:49
(UTC+00:00)

Ariane Rocket - Pass Details

Date: 24 January 2020
Orbit: 761 x 769 km, 98.7° (Epoch: 17 February)

Event Time Altitude Azimuth Distance (km) Brightness Sun altitude
Rises 18:48:53 0° 161° (SSE) 3,216 6.1 -22.2°
Reaches altitude 10° 18:51:10 10° 161° (SSE) 2,296 5.3 -22.6°
Maximum altitude 18:56:14 86° 73° (ENE) 775 2.9 -23.4°
Drops below altitude 10° 19:01:21 10° 346° (NNW) 2,319 5.6 -24.2°
Sets 19:03:40 0° 346° (NNW) 3,251 6.4 -24.6°
